TimeEST,TemperatureF,Dew PointF,Humidity,Sea Level PressureIn,VisibilityMPH,Wind Direction,Wind SpeedMPH,Gust SpeedMPH,PrecipitationIn,Events,Conditions,WindDirDegrees,DateUTC
12:42 AM,30.2,28.4,93,30.01,1.5,NNW,17.3,24.2,N/A,Snow,Light Snow,330,2013-03-08 05:42:00
12:56 AM,30.9,28.0,89,30.04,1.5,NNW,16.1,26.5,0.01,Snow,Light Snow,340,2013-03-08 05:56:00
1:56 AM,30.9,28.0,89,30.02,1.0,NNW,17.3,-,0.01,Snow,Light Snow,330,2013-03-08 06:56:00
2:56 AM,30.9,27.0,85,30.01,1.0,NNW,17.3,25.3,0.01,Snow,Light Snow,330,2013-03-08 07:56:00
3:03 AM,30.2,26.6,86,29.98,0.8,NNW,18.4,-,0.00,Snow,Light Snow,340,2013-03-08 08:03:00
3:56 AM,30.9,27.0,85,29.99,0.8,NNW,16.1,-,0.00,Snow,Light Snow,330,2013-03-08 08:56:00
4:56 AM,30.0,27.0,88,30.00,0.5,NNW,18.4,24.2,0.02,Fog-Snow,Snow,330,2013-03-08 09:56:00
5:56 AM,30.0,27.0,88,30.00,0.5,NNW,18.4,27.6,0.01,Fog-Snow,Snow,330,2013-03-08 10:56:00
6:56 AM,30.0,26.1,85,30.00,0.8,NNW,16.1,25.3,0.01,Snow,Light Snow,330,2013-03-08 11:56:00
7:56 AM,30.0,26.1,85,30.01,0.8,NNW,21.9,29.9,0.00,Snow,Light Snow,340,2013-03-08 12:56:00
8:56 AM,30.0,27.0,88,30.01,0.8,NNW,20.7,28.8,0.01,Snow,Light Snow,330,2013-03-08 13:56:00
9:56 AM,30.9,27.0,85,30.01,1.0,NNW,23.0,28.8,0.00,Snow,Light Snow,340,2013-03-08 14:56:00
10:53 AM,32.0,26.6,80,29.99,3.0,NNW,21.9,31.1,0.00,Snow,Light Snow,340,2013-03-08 15:53:00
10:56 AM,32.0,27.0,82,30.01,2.5,NNW,19.6,31.1,0.00,Snow,Light Snow,330,2013-03-08 15:56:00
11:56 AM,33.1,27.0,78,30.03,2.5,North,20.7,26.5,0.00,Snow,Light Snow,350,2013-03-08 16:56:00
12:56 PM,34.0,28.0,79,30.01,4.0,NNW,17.3,26.5,0.00,,Overcast,340,2013-03-08 17:56:00
1:56 PM,35.1,28.9,78,30.02,5.0,NNW,13.8,-,0.00,,Overcast,340,2013-03-08 18:56:00
2:56 PM,36.0,28.0,73,30.02,10.0,NNW,20.7,29.9,N/A,,Mostly Cloudy,340,2013-03-08 19:56:00
3:56 PM,37.9,27.0,65,30.04,10.0,North,15.0,-,N/A,,Mostly Cloudy,360,2013-03-08 20:56:00
4:56 PM,37.9,25.0,60,30.06,10.0,NNW,18.4,26.5,N/A,,Scattered Clouds,340,2013-03-08 21:56:00
5:56 PM,39.0,24.1,55,30.10,10.0,NNW,16.1,-,N/A,,Scattered Clouds,340,2013-03-08 22:56:00
6:56 PM,39.0,24.1,55,30.13,10.0,North,18.4,26.5,N/A,,Mostly Cloudy,350,2013-03-08 23:56:00
7:56 PM,39.9,23.0,51,30.15,10.0,North,17.3,-,N/A,,Mostly Cloudy,350,2013-03-09 00:56:00
8:56 PM,39.0,24.1,55,30.17,10.0,NNW,13.8,24.2,N/A,,Mostly Cloudy,340,2013-03-09 01:56:00
9:56 PM,39.0,24.1,55,30.18,10.0,NNW,17.3,-,N/A,,Mostly Cloudy,340,2013-03-09 02:56:00
10:56 PM,37.0,23.0,57,30.18,10.0,NNW,19.6,-,N/A,,Clear,340,2013-03-09 03:56:00
11:56 PM,36.0,21.9,57,30.18,10.0,NNW,18.4,-,N/A,,Clear,330,2013-03-09 04:56:00